This is the latest recevied weather packets stored in our database for station/object SK4BW-10. If no packets are shown the sender has not sent any weather packets the latest 10 day(s).
| Time | Temp. | Humidity | Pressure | Rain* | Wind** | Luminosity | Snow |
|---|---|---|---|---|---|---|---|
| 1777848978 | 4.44° C | 95% | 1005.9 hPa | - | - | - | - |
| 1777848077 | 5° C | 87% | 1005.9 hPa | - | - | - | - |
| 1777847176 | 4.44° C | 100% | 1005.9 hPa | - | - | - | - |
| 1777846276 | 3.89° C | 100% | 1006 hPa | - | - | - | - |
| 1777845375 | 3.33° C | 100% | 1006.2 hPa | - | - | - | - |
| 1777844474 | 3.33° C | 100% | 1006.1 hPa | - | - | - | - |
| 1777843573 | 3.89° C | 100% | 1006.3 hPa | - | - | - | - |
| 1777842672 | 3.89° C | 100% | 1006.5 hPa | - | - | - | - |
| 1777841772 | 3.33° C | 100% | 1006.8 hPa | - | - | - | - |
| 1777840871 | 3.33° C | 100% | 1006.9 hPa | - | - | - | - |
| 1777839969 | 3.33° C | 100% | 1006.8 hPa | - | - | - | - |
| 1777839069 | 3.33° C | 100% | 1006.9 hPa | - | - | - | - |
| 1777838168 | 3.33° C | 100% | 1006.9 hPa | - | - | - | - |
| 1777837267 | 3.89° C | 99% | 1006.9 hPa | - | - | - | - |
| 1777836367 | 3.89° C | 97% | 1007.1 hPa | - | - | - | - |
| 1777835466 | 3.89° C | 95% | 1007.2 hPa | - | - | - | - |
| 1777834565 | 3.89° C | 94% | 1007.4 hPa | - | - | - | - |
| 1777833663 | 4.44° C | 93% | 1007.4 hPa | - | - | - | - |
| 1777832762 | 4.44° C | 91% | 1007.4 hPa | - | - | - | - |
| 1777831861 | 4.44° C | 90% | 1007.4 hPa | - | - | - | - |
| 1777830960 | 4.44° C | 88% | 1007.5 hPa | - | - | - | - |
| 1777830059 | 5° C | 86% | 1007.5 hPa | - | - | - | - |
| 1777829158 | 4.44° C | 85% | 1007.5 hPa | - | - | - | - |
| 1777828257 | 5° C | 85% | 1007.5 hPa | - | - | - | - |
| 1777827356 | 5° C | 82% | 1007.5 hPa | - | - | - | - |
* Rain since midnight (hover to see other rain measurements)
** Current wind speed in m/s (hover to see current wind gust speed)